Revelstoke, Canada 16 day weather forecast

Slopes altitude range 510 m - 2225m

Number of lifts: 4 Pistes: -1km

In some cases the lift and piste totals shown are for the ski domain (e.g. Three Valleys) rather than individual resort (e.g. Courchevel)

Overview

The 16 day weather forecast is fully updated 4 times every day.

    • Tue 17 JUL 2018
    • Tue 17
    • 12C 14C
    • Wed 18 JUL 2018
    • Wed 18
    • 10C 15C
    • Thu 19 JUL 2018
    • Thu 19
    • 10C 13C
    • Fri 20 JUL 2018
    • Fri 20
    • 9C 13C
    • Sat 21 JUL 2018
    • Sat 21
    • 5C 11C
    • Sun 22 JUL 2018
    • Sun 22
    • 3C 6C
    • Mon 23 JUL 2018
    • Mon 23
    • 6C 8C
    • Tue 24 JUL 2018
    • Tue 24
    • 8C 10C
    • Wed 25 JUL 2018
    • Wed 25
    • 9C 11C
    • Thu 26 JUL 2018
    • Thu 26
    • 10C 12C
    • Fri 27 JUL 2018
    • Fri 27
    • 10C 24C
    • Sat 28 JUL 2018
    • Sat 28
    • 10C 25C
    • Sun 29 JUL 2018
    • Sun 29
    • 12C 27C
    • Mon 30 JUL 2018
    • Mon 30
    • 11C 28C
    • Tue 31 JUL 2018
    • Tue 31
    • 10C 27C
    • Wed 01 AUG 2018
    • Wed 01
    • 7C 24C

Date:

Time Type 0°C level Temp Chill Snow Cloud Speed Gust Dir Press
3:00 4573m 20°C 20_2 0cm 0% 2mph 3mph 1015mB
6:00 4596m 14°C 14_2 0cm 0% 2mph 3mph 1017mB
9:00 4581m 13°C 13_3 0cm 0% 3mph 4mph 1017mB
12:00 4525m 14°C 14_2 0cm 0% 2mph 3mph 1018mB
15:00 4455m 20°C 20_1 0cm 0% 1mph 2mph 1017mB
18:00 4392m 26°C 26_3 0cm 0% 3mph 4mph 1014mB
21:00 4315m 26°C 26_5 0cm 1% 5mph 7mph 1012mB
0:00 4202m 26°C 26_4 0cm 2% 4mph 7mph 1011mB
3:00 4246m 21°C 21_1 0cm 58% 1mph 2mph 1011mB
6:00 4224m 15°C 15_3 0cm 58% 3mph 3mph 1013mB
9:00 4125m 14°C 14_3 0cm 100% 3mph 3mph 1014mB
12:00 4109m 15°C 15_1 0cm 88% 1mph 1mph 1014mB
15:00 4035m 18°C 18_2 0cm 26% 2mph 3mph 1014mB
18:00 3970m 23°C 23_4 0cm 13% 4mph 5mph 1013mB
21:00 3955m 23°C 23_5 0cm 0% 5mph 5mph 1012mB
0:00 3871m 23°C 23_5 0cm 5% 5mph 7mph 1011mB
3:00 4028m 19°C 19_3 0cm 2% 3mph 4mph 1012mB
6:00 3913m 13°C 13_3 0cm 0% 3mph 4mph 1015mB
9:00 3848m 12°C 12_2 0cm 3% 2mph 3mph 1016mB
12:00 3863m 13°C 13_2 0cm 37% 2mph 2mph 1017mB
15:00 3824m 19°C 19_0 0cm 35% 0mph 1mph 1016mB
18:00 3811m 24°C 24_3 0cm 18% 3mph 5mph 1014mB
21:00 3800m 24°C 24_5 0cm 26% 5mph 8mph 1013mB
0:00 3845m 23°C 23_5 0cm 48% 5mph 9mph 1012mB
3:00 3788m 19°C 19_2 0cm 86% 2mph 3mph 1013mB
6:00 3815m 13°C 13_3 0cm 45% 3mph 4mph 1015mB
9:00 3763m 12°C 12_2 0cm 4% 2mph 3mph 1015mB
12:00 3699m 13°C 13_1 0cm 4% 1mph 2mph 1016mB
15:00 3684m 17°C 17_2 0cm 0% 2mph 3mph 1014mB
18:00 3631m 22°C 22_5 0cm 0% 5mph 13mph 1012mB
21:00 3679m 22°C 22_6 0cm 11% 6mph 13mph 1010mB
0:00 3720m 21°C 21_4 0cm 55% 4mph 9mph 1009mB
3:00 3584m 15°C 15_3 0cm 100% 3mph 3mph 1010mB
6:00 3405m 11°C 11_3 0cm 90% 3mph 4mph 1013mB
9:00 3353m 7°C 7_2 0cm 36% 2mph 3mph 1014mB
12:00 3028m 11°C 11_3 0cm 18% 3mph 3mph 1016mB
15:00 2849m 11°C 11_4 0cm 0% 4mph 5mph 1015mB
18:00 2776m 16°C 16_5 0cm 0% 5mph 7mph 1014mB
21:00 2960m 16°C 16_5 0cm 14% 5mph 9mph 1014mB
0:00 2973m 15°C 15_5 0cm 49% 5mph 8mph 1015mB
3:00 2943m 12°C 12_3 0cm 77% 3mph 3mph 1017mB
6:00 3013m 6°C 6_2 0cm 62% 2mph 3mph 1020mB
9:00 2912m 4°C 4_3 0cm 39% 3mph 4mph 1020mB
12:00 2893m 6°C 6_3 0cm 33% 3mph 4mph 1021mB
15:00 3027m 10°C 10_3 0cm 97% 3mph 5mph 1021mB
18:00 3113m 14°C 14_4 0cm 90% 4mph 5mph 1020mB
21:00 2903m 14°C 14_4 0cm 84% 4mph 6mph 1020mB
0:00 3404m 14°C 14_4 0cm 69% 4mph 6mph 1020mB
3:00 3434m 13°C 13_3 0cm 5% 3mph 3mph 1021mB
6:00 3471m 8°C 8_3 0cm 3% 3mph 4mph 1023mB
9:00 3415m 7°C 7_4 0cm 0% 4mph 5mph 1024mB
12:00 3328m 8°C 8_4 0cm 0% 4mph 5mph 1025mB
15:00 3268m 13°C 13_4 0cm 0% 4mph 5mph 1024mB
18:00 3168m 20°C 20_3 0cm 0% 3mph 4mph 1022mB
21:00 3320m 20°C 20_3 0cm 12% 3mph 3mph 1021mB
0:00 3383m 20°C 20_3 0cm 35% 3mph 4mph 1021mB
3:00 3461m 15°C 15_2 0cm 4% 2mph 3mph 1021mB
6:00 3454m 10°C 10_4 0cm 4% 4mph 5mph 1023mB
9:00 3433m 9°C 9_4 0cm 8% 4mph 6mph 1024mB
12:00 3412m 10°C 10_5 0cm 10% 5mph 6mph 1024mB
15:00 3411m 15°C 15_3 0cm 10% 3mph 4mph 1023mB
18:00 3439m 23°C 23_1 0cm 6% 1mph 1mph 1022mB
21:00 3494m 23°C 23_1 0cm 1% 1mph 1mph 1020mB
0:00 3561m 21°C 21_1 0cm 26% 1mph 2mph 1020mB
3:00 3657m 16°C 16_1 0cm 5% 1mph 2mph 1020mB
6:00 3646m 11°C 11_2 0cm 10% 2mph 2mph 1022mB
9:00 3610m 10°C 10_2 0cm 3% 2mph 3mph 1023mB
12:00 3564m 11°C 11_3 0cm 2% 3mph 4mph 1023mB
15:00 3547m 17°C 17_2 0cm 2% 2mph 3mph 1022mB
18:00 3556m 25°C 25_1 0cm 1% 1mph 1mph 1020mB
21:00 3606m 24°C 24_2 0cm 24% 2mph 2mph 1019mB
0:00 3660m 24°C 24_2 0cm 16% 2mph 3mph 1019mB
3:00 3719m 17°C 17_1 0cm 2% 1mph 2mph 1020mB
6:00 3748m 12°C 12_3 0cm 7% 3mph 4mph 1022mB
9:00 3733m 11°C 11_3 0cm 8% 3mph 4mph 1023mB
12:00 3736m 12°C 12_4 0cm 4% 4mph 5mph 1023mB
15:00 3756m 17°C 17_3 0cm 0% 3mph 4mph 1022mB
18:00 3781m 25°C 25_1 0cm 0% 1mph 2mph 1020mB
21:00 3717m 25°C 25_2 0cm 2% 2mph 3mph 1018mB
0:00 3792m 25°C 25_2 0cm 4% 2mph 3mph 1017mB
Afternoon 0mm 0 3708m 24°C 24_3 0cm 8% 3mph 4mph 1019mB
Morning 0mm 0 3933m 9°C 9_7 0cm 20% 7mph 9mph 1013mB
Afternoon 0mm 0 4008m 25°C 25_3 0cm 6% 3mph 4mph 1018mB
Morning 0mm 0 4179m 10°C 10_6 0cm 1% 6mph 9mph 1012mB
Afternoon 0mm 0 4179m 27°C 27_5 0cm 1% 5mph 6mph 1016mB
Morning 0mm 0 4289m 12°C 12_7 0cm 3% 7mph 12mph 1009mB
Afternoon 0mm 0 4150m 28°C 28_3 0cm 1% 3mph 3mph 1013mB
Morning 0mm 0 4192m 10°C 10_7 0cm 0% 7mph 10mph 1009mB
Afternoon 0mm 0 4082m 27°C 27_3 0cm 5% 3mph 4mph 1013mB
Morning 0mm 0 3869m 10°C 10_9 0cm 59% 9mph 11mph 1010mB
Afternoon 0mm 0 3598m 24°C 24_3 0cm 10% 3mph 4mph 1016mB
Morning 0.0104167mm 0 3417m 7°C 7_6 0cm 35% 6mph 10mph 1012mB

16 day outlook at a glance

Forecast issued: 17/07/2018 12:20:27

Chat

Your comments and questions. In a resort? Let us know what it's like!


Characters left 250

For terms and conditions see Readers Comments on the Cookie and privacy policy page.